| time (UTC) | temp C | wind direction | speed KPH | gust KPH | rain 1hr cm | rain 24hr cm | rain mn cm | humidity % | barometer mb |
| 20260504190602 | 22 | 0 | 101.4 | 117.5 | 0.00 | 0.00 | 0.00 | ||
| 20260504190002 | 22 | 0 | 101.4 | 117.5 | 0.00 | 0.00 | 0.00 | ||
| 20260504185401 | 22 | 0 | 101.4 | 117.5 | 0.00 | 0.00 | 0.00 | ||
| 20260504184802 | 22 | 0 | 101.4 | 115.9 | 0.00 | 0.00 | 0.00 | ||
| 20260504184202 | 21 | 0 | 101.4 | 112.7 | 0.00 | 0.00 | 0.00 | ||
| 20260504183602 | 21 | 0 | 101.4 | 112.7 | 0.00 | 0.00 | 0.00 | ||
| 20260504183002 | 20 | 0 | 101.4 | 109.4 | 0.00 | 0.00 | 0.00 | ||
| 20260504182404 | 22 | 0 | 101.4 | 115.9 | 0.00 | 0.00 | 0.00 | ||
| 20260504181802 | 22 | 0 | 101.4 | 115.9 | 0.00 | 0.00 | 0.00 | ||
| 20260504181202 | 21 | 0 | 99.8 | 112.7 | 0.00 | 0.00 | 0.00 | ||
| 20260504180602 | 21 | 0 | 99.8 | 112.7 | 0.00 | 0.00 | 0.00 | ||
| 20260504180002 | 21 | 0 | 99.8 | 114.3 | 0.00 | 0.00 | 0.00 | ||
| 20260504175402 | 22 | 0 | 99.8 | 115.9 | 0.00 | 0.00 | 0.00 | ||
| 20260504174802 | 21 | 0 | 99.8 | 112.7 | 0.00 | 0.00 | 0.00 | ||
| 20260504174202 | 21 | 0 | 99.8 | 112.7 | 0.00 | 0.00 | 0.00 | ||
| 20260504173602 | 21 | 0 | 99.8 | 114.3 | 0.00 | 0.00 | 0.00 | ||
| 20260504173002 | 21 | 0 | 99.8 | 112.7 | 0.00 | 0.00 | 0.00 | ||
| 20260504172403 | 21 | 0 | 99.8 | 112.7 | 0.00 | 0.00 | 0.00 | ||
| 20260504171802 | 21 | 0 | 99.8 | 112.7 | 0.00 | 0.00 | 0.00 | ||
| 20260504171202 | 20 | 0 | 99.8 | 109.4 | 0.00 | 0.00 | 0.00 | ||
| 20260504170602 | 20 | 0 | 99.8 | 109.4 | 0.00 | 0.00 | 0.00 | ||
| 20260504150602 | 18 | 0 | 96.6 | 104.6 | 0.00 | 0.00 | 0.00 | ||
| 20260504141202 | 17 | 0 | 95.0 | 101.4 | 0.00 | 0.00 | 0.00 | ||
| 20260504140602 | 16 | 0 | 95.0 | 99.8 | 0.00 | 0.00 | 0.00 | ||
| 20260504130602 | 14 | 0 | 95.0 | 93.3 | 0.00 | 0.00 | 0.00 | ||
| 20260504110601 | 5 | 0 | 93.3 | 67.6 | 0.00 | 0.00 | 0.00 | ||
| 20260504100602 | 3 | 0 | 95.0 | 62.8 | 0.00 | 0.00 | 0.00 | ||
| 20260504081802 | 3 | 0 | 95.0 | 61.2 | 0.00 | 0.00 | 0.00 | ||
| 20260504081202 | 3 | 0 | 95.0 | 61.2 | 0.00 | 0.00 | 0.00 | ||
| 20260504080601 | 3 | 0 | 95.0 | 61.2 | 0.00 | 0.00 | 0.00 | ||
| 20260504050002 | 4 | 0 | 96.6 | 64.4 | 0.00 | 0.00 | 0.00 | ||
| 20260504045402 | 5 | 0 | 96.6 | 66.0 | 0.00 | 0.00 | 0.00 | ||
| 20260504044802 | 5 | 0 | 96.6 | 66.0 | 0.00 | 0.00 | 0.00 | ||
| 20260504044201 | 5 | 0 | 96.6 | 66.0 | 0.00 | 0.00 | 0.00 | ||
| 20260504043601 | 5 | 0 | 96.6 | 66.0 | 0.00 | 0.00 | 0.00 | ||
| 20260504043002 | 5 | 0 | 96.6 | 67.6 | 0.00 | 0.00 | 0.00 | ||
| 20260504042402 | 5 | 0 | 96.6 | 67.6 | 0.00 | 0.00 | 0.00 | ||
| 20260504041801 | 5 | 0 | 96.6 | 67.6 | 0.00 | 0.00 | 0.00 | ||
| 20260504041202 | 6 | 0 | 96.6 | 69.2 | 0.00 | 0.00 | 0.00 | ||
| 20260504040601 | 6 | 0 | 96.6 | 69.2 | 0.00 | 0.00 | 0.00 | ||
| 20260504040002 | 6 | 0 | 98.2 | 69.2 | 0.00 | 0.00 | 0.00 | ||
| 20260504035402 | 5 | 0 | 98.2 | 67.6 | 0.00 | 0.00 | 0.00 | ||
| 20260504034801 | 6 | 0 | 98.2 | 70.8 | 0.00 | 0.00 | 0.00 | ||
| 20260504034202 | 6 | 0 | 98.2 | 70.8 | 0.00 | 0.00 | 0.00 | ||
| 20260504033601 | 7 | 0 | 98.2 | 72.4 | 0.00 | 0.00 | 0.00 | ||
| 20260504033002 | 6 | 0 | 98.2 | 70.8 | 0.00 | 0.00 | 0.00 | ||
| 20260504032402 | 6 | 0 | 98.2 | 70.8 | 0.00 | 0.00 | 0.00 | ||
| 20260504031801 | 6 | 0 | 98.2 | 70.8 | 0.00 | 0.00 | 0.00 | ||
| 20260504031202 | 7 | 0 | 98.2 | 72.4 | 0.00 | 0.00 | 0.00 | ||
| 20260504030602 | 7 | 0 | 98.2 | 72.4 | 0.00 | 0.00 | 0.00 | ||
| 20260504030002 | 6 | 0 | 98.2 | 70.8 | 0.00 | 0.00 | 0.00 | ||
| 20260504025402 | 7 | 0 | 98.2 | 72.4 | 0.00 | 0.00 | 0.00 | ||
| 20260504024801 | 7 | 0 | 98.2 | 74.0 | 0.00 | 0.00 | 0.00 | ||
| 20260504024201 | 7 | 0 | 98.2 | 74.0 | 0.00 | 0.00 | 0.00 | ||
| 20260504023601 | 7 | 0 | 98.2 | 74.0 | 0.00 | 0.00 | 0.00 | ||
| 20260504023002 | 8 | 0 | 98.2 | 75.6 | 0.00 | 0.00 | 0.00 | ||
| 20260504022401 | 8 | 0 | 98.2 | 77.2 | 0.00 | 0.00 | 0.00 | ||
| 20260504021802 | 8 | 0 | 98.2 | 75.6 | 0.00 | 0.00 | 0.00 | ||
| 20260504021202 | 7 | 0 | 98.2 | 74.0 | 0.00 | 0.00 | 0.00 | ||
| 20260504020601 | 7 | 0 | 98.2 | 74.0 | 0.00 | 0.00 | 0.00 | ||
| 20260504020002 | 7 | 0 | 98.2 | 74.0 | 0.00 | 0.00 | 0.00 | ||
| 20260504015402 | 7 | 0 | 98.2 | 72.4 | 0.00 | 0.00 | 0.00 | ||
| 20260504014801 | 7 | 0 | 98.2 | 74.0 | 0.00 | 0.00 | 0.00 | ||
| 20260504014202 | 7 | 0 | 98.2 | 74.0 | 0.00 | 0.00 | 0.00 | ||
| 20260504013602 | 8 | 0 | 98.2 | 75.6 | 0.00 | 0.00 | 0.00 | ||
| 20260504013002 | 8 | 0 | 98.2 | 77.2 | 0.00 | 0.00 | 0.00 | ||
| 20260504012402 | 9 | 0 | 98.2 | 78.9 | 0.00 | 0.00 | 0.00 | ||
| 20260504011802 | 9 | 0 | 98.2 | 78.9 | 0.00 | 0.00 | 0.00 | ||
| 20260504011201 | 9 | 0 | 98.2 | 78.9 | 0.00 | 0.00 | 0.00 | ||
| 20260504010601 | 9 | 0 | 98.2 | 78.9 | 0.00 | 0.00 | 0.00 | ||
| 20260504010002 | 9 | 0 | 98.2 | 78.9 | 0.00 | 0.00 | 0.00 | ||
| 20260504005402 | 8 | 0 | 98.2 | 77.2 | 0.00 | 0.00 | 0.00 | ||
| 20260504004802 | 8 | 0 | 99.8 | 77.2 | 0.00 | 0.00 | 0.00 | ||
| 20260504004202 | 8 | 0 | 99.8 | 77.2 | 0.00 | 0.00 | 0.00 | ||
| 20260504003602 | 9 | 0 | 99.8 | 78.9 | 0.00 | 0.00 | 0.00 | ||
| 20260504003001 | 10 | 0 | 99.8 | 80.5 | 0.00 | 0.00 | 0.00 | ||
| 20260504002402 | 11 | 0 | 99.8 | 83.7 | 0.00 | 0.00 | 0.00 | ||
| 20260504001802 | 11 | 0 | 99.8 | 83.7 | 0.00 | 0.00 | 0.00 | ||
| 20260504001202 | 11 | 0 | 99.8 | 83.7 | 0.00 | 0.00 | 0.00 | ||
| 20260504000601 | 11 | 0 | 99.8 | 83.7 | 0.00 | 0.00 | 0.00 | ||
| 20260504000002 | 11 | 0 | 99.8 | 85.3 | 0.00 | 0.00 | 0.00 | ||
| 20260503235402 | 11 | 0 | 99.8 | 85.3 | 0.00 | 0.00 | 0.00 | ||
| 20260503234802 | 11 | 0 | 99.8 | 85.3 | 0.00 | 0.00 | 0.00 | ||
| 20260503234203 | 12 | 0 | 99.8 | 86.9 | 0.00 | 0.00 | 0.00 | ||
| 20260503233602 | 12 | 0 | 99.8 | 86.9 | 0.00 | 0.00 | 0.00 | ||
| 20260503232402 | 12 | 0 | 99.8 | 86.9 | 0.00 | 0.00 | 0.00 | ||
| 20260503231802 | 12 | 0 | 99.8 | 86.9 | 0.00 | 0.00 | 0.00 | ||
| 20260503231202 | 12 | 0 | 99.8 | 86.9 | 0.00 | 0.00 | 0.00 | ||
| 20260503230602 | 12 | 0 | 99.8 | 88.5 | 0.00 | 0.00 | 0.00 | ||
| 20260503230002 | 12 | 0 | 99.8 | 88.5 | 0.00 | 0.00 | 0.00 | ||
| 20260503225402 | 13 | 0 | 99.8 | 90.1 | 0.00 | 0.00 | 0.00 | ||
| 20260503224802 | 13 | 0 | 99.8 | 90.1 | 0.00 | 0.00 | 0.00 | ||
| 20260503224202 | 13 | 0 | 99.8 | 90.1 | 0.00 | 0.00 | 0.00 | ||
| 20260503223602 | 13 | 0 | 99.8 | 91.7 | 0.00 | 0.00 | 0.00 | ||
| 20260503223002 | 13 | 0 | 99.8 | 91.7 | 0.00 | 0.00 | 0.00 | ||
| 20260503222402 | 13 | 0 | 99.8 | 91.7 | 0.00 | 0.00 | 0.00 | ||
| 20260503221802 | 13 | 0 | 99.8 | 91.7 | 0.00 | 0.00 | 0.00 | ||
| 20260503221202 | 14 | 0 | 99.8 | 93.3 | 0.00 | 0.00 | 0.00 | ||
| 20260503220602 | 14 | 0 | 99.8 | 93.3 | 0.00 | 0.00 | 0.00 | ||
| 20260503220001 | 15 | 0 | 99.8 | 95.0 | 0.00 | 0.00 | 0.00 | ||
| 20260503215402 | 14 | 0 | 99.8 | 93.3 | 0.00 | 0.00 | 0.00 | ||
| 20260503214202 | 14 | 0 | 99.8 | 93.3 | 0.00 | 0.00 | 0.00 | ||
| 20260503213602 | 14 | 0 | 99.8 | 93.3 | 0.00 | 0.00 | 0.00 | ||
| 20260503213002 | 14 | 0 | 99.8 | 93.3 | 0.00 | 0.00 | 0.00 | ||
| 20260503212402 | 14 | 0 | 99.8 | 93.3 | 0.00 | 0.00 | 0.00 | ||
| 20260503211802 | 15 | 0 | 99.8 | 95.0 | 0.00 | 0.00 | 0.00 | ||
| 20260503211201 | 15 | 0 | 99.8 | 95.0 | 0.00 | 0.00 | 0.00 | ||
| 20260503210602 | 14 | 0 | 99.8 | 93.3 | 0.00 | 0.00 | 0.00 | ||
| 20260503210002 | 14 | 0 | 99.8 | 93.3 | 0.00 | 0.00 | 0.00 | ||
| 20260503205401 | 15 | 0 | 99.8 | 95.0 | 0.00 | 0.00 | 0.00 | ||
| 20260503204802 | 14 | 0 | 99.8 | 93.3 | 0.00 | 0.00 | 0.00 | ||
| 20260503204201 | 14 | 0 | 99.8 | 93.3 | 0.00 | 0.00 | 0.00 | ||
| 20260503203602 | 14 | 0 | 99.8 | 93.3 | 0.00 | 0.00 | 0.00 | ||
| 20260503203002 | 14 | 0 | 99.8 | 93.3 | 0.00 | 0.00 | 0.00 | ||
| 20260503202402 | 14 | 0 | 99.8 | 93.3 | 0.00 | 0.00 | 0.00 | ||
| 20260503201801 | 14 | 0 | 99.8 | 93.3 | 0.00 | 0.00 | 0.00 | ||
| 20260503201202 | 15 | 0 | 99.8 | 95.0 | 0.00 | 0.00 | 0.00 | ||
| 20260503200601 | 13 | 0 | 99.8 | 91.7 | 0.00 | 0.00 | 0.00 | ||
| 20260503200002 | 15 | 0 | 99.8 | 95.0 | 0.00 | 0.00 | 0.00 | ||
| 20260503195402 | 13 | 0 | 99.8 | 91.7 | 0.00 | 0.00 | 0.00 | ||
| 20260503194802 | 13 | 0 | 99.8 | 91.7 | 0.00 | 0.00 | 0.00 | ||
| 20260503194202 | 14 | 0 | 99.8 | 93.3 | 0.00 | 0.00 | 0.00 | ||
| 20260503193602 | 15 | 0 | 99.8 | 95.0 | 0.00 | 0.00 | 0.00 | ||
| 20260503193001 | 15 | 0 | 99.8 | 95.0 | 0.00 | 0.00 | 0.00 | ||
| 20260503192402 | 15 | 0 | 99.8 | 95.0 | 0.00 | 0.00 | 0.00 | ||
| 20260503191802 | 15 | 0 | 99.8 | 96.6 | 0.00 | 0.00 | 0.00 | ||
| 20260503191203 | 15 | 0 | 99.8 | 96.6 | 0.00 | 0.00 | 0.00 |